Tracking 29892 objects as of 21-Nov-2024
HD Live streaming from Space Station
objects crossing your sky now

COSMOS 2251 DEB

Track COSMOS 2251 DEB now!
10-day predictions


NORAD ID: 36071
Int'l Code: 1993-036AYJ
Perigee: 579.8 km
Apogee: 591.7 km
Inclination: 74.0 °
Period: 96.2 minutes
Semi major axis: 6956 km
RCS: 0.009 m2 (small)
Launch date: June 16, 1993
Source: Commonwealth of Independent States (former USSR) (CIS)
Launch site: PLESETSK MISSILE AND SPACE COMPLEX (PKMTR)

Note: This is SATELLITE DEBRIS
Your satellite tracking list
Your tracking list is empty




NASA's NSSDC Master Catalog

Two Line Element Set (TLE):
1 36071U 93036AYJ 24322.08996406  .00077257  00000-0  67736-2 0  9992
2 36071  74.0093  87.0508 0008565 302.7237  57.3121 14.96200023591469
Source of the keplerian elements: AFSPC